Dewpoint
61 60 60 60 60 59 59 59 59 59 59 59 59 59 59 59 58 57 57 56 55 55 55 54 54 54 50 35 36 51 52 53 48 42 38 38 35 33 30 30 29 28 29 29 29 29 29
61 61 60 60 59 59 59 59 59 59 58 58 58 58 58 58 58 58 57 56 55 54 54 54 54 54 44 19 40 49 46 45 42 41 38 36 33 32 31 30 29 29 29 28 29 28 28
57 57 58 59 60 60 59 59 59 58 58 58 58 58 58 57 57 57 57 56 55 54 54 54 55 52 43 28 42 44 43 38 40 38 34 36 35 32 31 29 30 29 27 28 27 27 27
57 55 55 57 58 59 59 59 59 58 58 58 58 57 57 57 57 56 56 55 54 54 53 54 54 48 34 41 42 42 41 39 39 39 38 36 36 32 32 32 30 28 28 25 26 28 28
55 56 55 56 57 57 58 59 59 59 59 58 58 58 58 57 57 56 55 55 53 53 53 54 49 46 35 43 41 41 40 36 35 36 37 36 33 31 31 29 27 28 24 24 27 28 27
53 53 55 55 55 56 56 57 59 59 59 59 58 58 58 58 57 56 54 52 50 52 53 53 48 42 36 35 40 37 37 36 35 35 33 34 32 30 30 28 21 23 26 27 27 28 27
53 52 53 54 56 55 56 56 54 55 58 58 58 58 58 58 57 55 52 43 37 35 44 35 36 38 37 36 39 36 37 36 36 33 31 31 30 29 29 29 29 29 28 28 29 30 28
54 54 53 54 55 55 55 56 54 52 52 55 58 58 58 58 56 55 51 40 41 47 44 45 43 43 41 41 34 37 36 34 34 32 32 30 29 30 31 30 29 29 28 28 29 28 31
52 52 53 53 53 54 55 56 55 53 52 52 54 57 58 58 55 51 47 43 47 47 43 40 45 42 38 41 33 31 35 34 33 32 31 30 29 31 30 29 30 30 29 29 28 30 32
51 51 52 51 51 53 54 54 54 53 53 52 54 55 58 57 49 47 43 51 52 48 37 30 34 38 39 38 28 34 35 35 34 31 31 30 31 30 29 30 31 28 30 30 28 30 28
50 50 50 51 51 51 53 53 52 51 52 52 53 56 57 56 47 48 52 53 53 46 27 28 30 39 37 30 30 30 37 35 33 32 32 29 29 29 29 29 31 28 29 29 31 31 30
49 50 50 50 50 50 51 51 51 51 51 52 49 52 56 55 53 53 55 52 45 29 23 21 34 33 33 33 33 33 34 35 35 32 32 31 32 30 30 29 31 32 32 31 33 32 29
50 50 51 51 51 51 50 51 51 50 50 51 48 50 55 56 49 54 50 48 34 25 27 22 27 33 33 32 33 31 31 32 30 28 27 30 30 31 31 29 32 31 30 28 27 25 24
49 50 50 50 51 51 51 50 50 50 49 50 48 51 54 56 55 53 47 41 28 28 27 29 27 28 26 31 31 30 30 29 31 29 28 27 24 33 35 33 32 32 32 29 24 21 21
49 50 49 49 50 51 51 50 50 50 49 49 51 51 52 55 56 54 44 36 30 29 29 28 26 24 25 28 30 29 29 29 31 30 28 28 31 35 36 37 37 33 31 34 28 32 30
48 48 49 49 49 50 51 51 50 50 49 50 47 48 50 55 56 52 43 38 32 33 34 32 25 28 30 32 28 28 28 32 28 31 31 30 27 37 37 35 36 33 34 27 29 26 25
47 48 48 49 48 49 50 51 50 50 49 51 45 42 47 55 53 47 39 39 37 35 34 32 31 29 35 32 34 32 30 38 42 39 33 35 34 32 37 35 34 33 30 35 35 34 29
47 47 48 48 48 48 49 51 50 50 50 48 43 36 49 54 44 44 39 39 36 34 35 34 34 34 34 36 32 35 35 40 44 43 38 42 38 34 34 39 39 37 33 33 32 29 32
46 46 47 48 48 48 49 50 50 50 49 44 39 39 52 52 37 39 39 39 37 35 35 34 33 35 33 31 29 32 40 44 43 42 40 41 38 34 34 35 37 37 37 36 34 32 28
46 46 46 47 47 48 49 49 50 50 48 41 39 31 38 46 43 40 39 36 36 39 37 37 37 37 36 35 37 32 39 42 43 43 44 43 39 34 29 30 35 35 36 38 34 29 29
45 45 46 46 47 47 48 49 50 50 49 40 38 36 37 35 39 41 40 38 37 37 39 38 36 36 35 33 35 37 39 41 42 44 43 41 36 37 36 37 38 36 36 36 35 34 31
44 45 45 45 46 47 47 48 49 50 48 41 33 36 38 38 40 39 38 38 37 37 38 37 36 36 36 34 33 31 34 36 37 42 41 41 35 37 35 36 37 35 36 37 35 35 34
42 43 44 45 46 47 47 48 49 49 47 41 39 40 40 35 38 39 36 35 36 38 37 36 37 37 36 36 37 37 37 38 38 38 38 39 36 35 31 34 34 30 33 35 35 36 35
43 43 44 46 46 46 47 47 48 49 46 40 38 39 36 32 35 37 37 39 36 36 34 37 37 36 37 43 42 42 42 42 43 42 40 37 36 35 32 33 25 28 33 34 34 34 34
43 43 44 44 45 46 46 47 48 48 47 41 40 36 37 31 36 36 37 36 38 38 38 37 39 39 42 40 36 33 33 36 38 38 41 38 36 34 30 27 29 32 30 32 29 28 23
42 43 43 44 44 45 46 46 47 48 48 43 40 40 37 34 31 38 37 38 35 35 37 39 41 43 41 38 36 29 25 30 32 34 37 38 38 36 32 29 25 26 17 17 25 25 18
42 43 43 43 44 45 45 46 47 47 48 45 42 40 36 32 37 39 37 37 39 38 36 39 40 41 41 37 33 28 27 30 29 31 29 31 33 31 32 30 32 36 14 27 29 26 18
42 43 43 43 44 44 45 46 46 47 47 46 44 42 36 32 33 38 38 39 39 38 35 38 39 39 39 36 32 30 30 31 33 33 31 30 30 30 32 30 27 21 22 24 27 25 23
43 43 43 43 44 44 45 45 46 47 47 46 43 43 40 33 31 37 37 37 38 39 37 40 36 38 38 36 35 33 33 36 34 30 34 31 32 30 31 31 28 35 33 31 28 25 26
Wind_Speed
19 18 17 15 15 14 13 13 12 11 10 10 11 10 12 13 14 16 18 23 26 26 22 24 25 21 9 6 4 4 10 9 5 6 8 2 1 1 3 1 2 6 6 5 9 10 11
16 17 17 17 15 13 13 13 13 12 11 11 11 11 11 13 15 16 19 20 25 28 24 22 23 14 3 9 1 8 10 9 5 3 6 5 3 2 4 3 3 2 11 14 10 16 10
7 7 3 9 14 14 13 13 13 13 12 11 10 10 11 12 14 17 18 22 24 26 26 23 15 2 1 14 2 7 7 3 4 3 3 4 3 1 1 6 3 4 11 17 13 5 5
5 5 3 0 5 12 13 14 13 13 12 11 11 10 11 12 14 17 20 23 27 24 22 11 2 0 7 3 2 6 5 2 5 7 5 6 2 2 2 3 5 6 3 7 4 6 1
10 6 4 6 1 2 5 11 12 13 12 10 10 10 11 11 14 17 20 26 29 17 7 5 1 1 8 4 3 7 8 5 3 3 5 2 1 1 1 0 6 3 8 6 9 6 3
13 10 10 11 7 9 2 2 7 10 12 10 9 10 10 11 12 15 21 25 20 2 2 2 2 2 5 1 4 5 3 6 5 4 4 1 1 3 1 4 9 4 4 3 8 6 9
17 16 14 14 11 9 10 6 1 1 6 9 8 9 10 10 11 12 12 7 6 4 3 4 7 6 13 8 7 6 2 6 3 3 6 2 5 15 17 12 4 3 8 13 18 14 7
16 16 17 16 14 14 14 10 6 4 4 5 8 9 9 8 8 8 4 2 1 1 13 15 23 17 10 4 6 6 4 7 7 11 4 4 19 16 6 8 10 10 14 20 14 9 4
17 15 13 12 11 11 11 10 9 7 6 4 7 8 9 7 7 4 2 5 6 6 5 11 7 7 6 12 14 12 10 5 6 9 11 14 10 7 7 9 10 12 12 17 17 4 6
17 16 14 13 11 11 10 9 10 11 7 3 9 8 10 6 4 1 3 7 7 6 5 8 4 6 5 6 4 8 18 8 4 10 9 10 10 20 15 16 6 16 13 14 14 4 9
16 17 16 13 11 9 8 7 6 6 4 5 8 10 10 4 2 1 3 11 4 3 7 1 2 3 4 5 4 5 3 3 14 8 5 7 4 1 3 6 10 13 5 9 5 4 3
16 15 14 13 12 11 10 7 6 7 7 7 7 9 7 4 3 1 8 12 3 3 9 4 1 4 4 1 2 2 2 1 4 6 4 10 3 5 5 5 5 3 3 3 4 3 6
18 17 15 14 13 12 11 9 9 8 8 7 7 7 4 4 3 1 5 2 1 7 3 2 1 1 1 1 2 3 5 9 6 3 5 5 11 7 8 12 3 5 3 4 4 4 9
20 19 17 15 15 14 13 11 10 9 7 5 4 2 5 4 0 3 5 3 12 5 9 3 2 2 1 2 4 2 3 6 6 3 1 2 7 5 5 1 3 4 8 8 7 7 7
21 19 18 16 15 15 15 13 12 10 6 4 2 1 3 5 7 3 7 12 11 8 4 1 1 2 2 2 4 2 6 6 9 14 9 4 4 1 9 2 1 2 3 1 1 2 2
23 22 20 19 16 15 16 15 13 11 7 7 3 2 4 7 14 3 6 20 9 4 1 0 5 1 1 4 1 2 4 2 3 12 11 3 6 3 3 0 9 2 4 2 4 5 7
24 24 23 21 19 17 16 17 15 12 10 10 2 2 4 15 9 6 21 12 14 5 3 3 1 1 1 3 3 3 2 4 8 5 7 3 3 3 0 2 4 1 2 5 6 2 5
26 24 24 23 21 18 17 19 18 15 14 8 4 4 2 14 17 7 25 7 5 10 4 2 1 1 1 4 2 2 3 3 13 5 2 2 4 2 3 6 13 4 3 4 5 5 9
26 26 25 24 23 21 20 20 20 19 20 8 6 3 4 5 18 26 8 9 3 9 4 3 4 4 1 1 2 3 3 3 10 4 3 3 2 2 6 2 1 4 7 4 5 2 14
28 27 26 26 25 23 21 22 22 25 22 8 5 7 4 11 10 15 12 24 18 5 5 5 2 2 3 5 4 4 3 4 4 3 6 2 5 8 16 9 4 3 20 20 4 8 18
28 27 27 28 27 25 24 25 24 28 26 11 6 7 5 14 23 15 10 5 20 11 8 7 3 7 5 6 0 3 1 2 3 1 3 2 5 6 8 8 6 12 20 24 23 28 22
30 30 30 30 30 29 29 27 26 29 29 13 9 5 2 3 11 23 18 11 24 21 12 14 8 4 11 9 8 5 3 5 5 2 0 3 5 3 7 10 15 23 26 25 26 28 25
32 32 32 32 33 31 30 29 29 32 23 8 9 1 3 6 5 21 27 25 15 10 7 8 14 12 8 10 12 16 12 11 10 10 7 4 6 1 12 5 9 24 21 27 23 19 16
34 33 33 34 34 33 32 32 30 33 35 4 5 4 4 5 11 11 9 17 19 25 19 10 11 10 5 2 1 1 5 8 8 12 8 8 6 5 13 2 19 10 2 14 23 23 18
34 34 35 36 36 35 34 33 32 31 37 14 7 14 5 7 4 12 13 8 16 11 7 9 5 7 12 2 4 5 3 3 3 2 9 7 9 7 8 15 24 22 8 7 9 14 6
36 35 36 36 36 36 35 34 33 31 34 22 8 9 7 2 11 2 13 14 10 13 9 5 2 1 1 4 3 4 5 3 4 1 2 7 4 11 3 7 12 1 3 2 2 18 4
38 38 37 37 37 37 36 34 33 33 32 26 9 9 11 7 1 1 4 12 9 9 7 6 6 3 2 9 7 5 10 5 7 7 8 5 4 16 15 10 12 4 3 1 4 10 3
40 40 39 39 39 38 38 36 34 33 35 30 7 14 17 9 4 1 2 1 2 7 10 7 8 2 3 9 6 8 8 8 7 5 6 10 8 8 5 7 15 3 2 7 1 1 3
41 42 41 41 40 40 39 38 35 34 35 34 9 12 7 8 3 1 2 1 2 1 7 8 7 8 13 8 7 5 6 4 7 8 3 7 11 6 13 10 3 2 4 1 2 3 4
Wind_Direction
216 216 221 225 232 234 237 240 244 250 258 269 280 291 304 312 318 320 324 325 325 322 330 329 329 337 353 338 263 150 131 130 134 140 139 133 153 137 277 173 277 240 268 259 269 272 265
225 223 221 220 228 235 241 245 247 252 253 262 274 288 298 307 312 316 319 319 320 319 325 326 323 329 15 301 28 148 132 136 158 167 148 155 205 198 256 249 231 294 291 285 280 275 245
146 137 151 212 222 221 236 244 249 251 256 262 273 285 296 304 311 314 316 315 315 314 320 322 317 354 340 267 13 159 156 159 174 213 159 199 196 186 177 310 300 279 303 314 286 277 270
215 188 197 313 225 230 234 239 244 251 255 261 271 278 288 299 308 313 316 314 310 313 318 327 312 54 260 283 73 169 185 272 197 240 261 259 234 236 204 303 336 318 321 306 287 323 325
219 253 178 257 259 34 231 234 240 247 253 257 271 282 292 302 311 315 318 312 304 312 322 289 346 16 267 325 259 254 187 224 161 229 251 273 107 205 64 222 315 20 272 289 313 354 305
203 208 242 238 247 269 297 44 235 245 247 253 268 282 290 300 311 321 320 306 300 14 56 215 280 308 277 309 311 301 217 201 247 317 337 132 46 206 90 161 250 242 239 291 293 311 339
202 206 205 231 227 253 257 250 269 328 268 250 253 274 287 300 317 333 347 345 5 4 1 247 263 249 275 265 274 243 150 138 150 119 225 343 244 229 233 217 222 300 290 291 286 286 297
202 204 205 208 211 215 235 232 236 259 280 300 267 263 277 291 310 319 9 23 107 297 306 267 255 256 258 2 281 244 159 182 182 220 187 246 254 249 231 228 243 260 280 287 297 291 225
203 202 205 201 213 230 227 217 225 243 256 289 295 273 266 281 288 289 17 273 327 24 294 294 225 245 237 175 228 244 177 185 200 214 207 215 229 52 196 241 256 255 243 263 266 311 269
211 206 207 204 201 207 216 201 199 219 234 302 306 274 261 261 284 247 307 321 41 97 320 274 258 262 163 170 240 207 189 171 206 240 218 236 255 256 262 264 203 280 221 239 258 256 293
213 215 214 209 200 205 214 216 216 241 266 273 275 291 258 224 194 210 18 331 59 85 303 228 231 149 149 158 328 24 171 163 213 205 169 243 280 162 231 250 183 252 240 228 228 233 306
207 205 202 205 210 204 208 213 221 234 237 242 259 260 255 201 274 226 43 306 28 95 246 303 188 183 155 240 319 80 118 75 186 214 243 255 282 272 238 254 230 269 167 66 57 125 240
201 204 204 205 208 211 215 211 212 220 236 255 292 277 223 194 219 289 180 114 222 206 297 270 323 57 162 176 296 207 155 190 184 171 258 295 259 258 227 266 209 164 152 287 279 236 251
201 200 201 203 207 210 213 214 216 217 223 238 297 237 259 260 76 104 136 131 218 222 218 347 356 314 261 143 245 209 145 208 227 128 93 310 315 354 354 230 257 186 187 206 250 239 255
203 198 202 206 205 207 208 211 212 218 218 193 156 222 240 233 216 46 131 202 215 182 219 243 343 279 258 255 210 202 216 218 208 189 204 196 257 351 47 17 89 145 180 162 121 53 305
209 206 201 203 205 206 203 211 210 209 192 168 148 218 234 189 164 119 188 218 196 213 33 143 194 133 116 4 237 225 210 8 246 211 201 253 254 13 342 124 46 99 132 112 35 312 278
213 208 202 202 203 204 205 206 207 202 174 158 130 190 245 156 142 176 218 214 209 211 70 45 286 295 99 21 9 324 293 18 7 359 163 162 161 293 263 358 182 349 121 86 97 230 269
212 206 203 200 201 207 205 204 203 192 155 147 135 207 198 149 191 203 227 195 138 204 104 201 42 187 64 42 22 309 296 21 345 328 91 41 135 305 318 337 320 300 176 134 161 219 239
210 206 204 202 199 202 206 202 200 173 154 142 164 247 213 176 214 215 216 209 165 191 173 209 230 233 111 218 320 258 12 344 2 36 151 157 113 342 319 4 165 324 314 219 138 126 238
206 205 207 204 202 202 203 203 199 171 174 146 159 191 245 213 218 213 207 220 223 179 159 166 128 157 191 221 213 278 17 15 9 54 39 49 162 213 257 257 147 282 313 306 271 246 268
207 206 203 207 205 202 204 203 200 180 180 173 186 224 204 209 217 229 203 174 196 183 195 180 158 216 188 215 114 215 321 359 68 38 32 119 248 214 236 253 244 244 247 255 230 243 252
210 210 208 209 205 203 204 204 199 186 179 199 179 189 180 278 194 202 218 198 201 196 176 216 221 259 236 218 204 239 348 333 278 1 287 23 267 227 274 247 244 266 251 240 246 250 256
213 212 210 206 203 202 204 208 199 191 170 188 193 238 175 219 196 191 211 224 205 211 240 207 210 223 235 250 246 255 252 242 251 264 261 216 194 216 283 255 283 284 248 234 245 237 235
212 210 208 203 201 202 204 207 206 196 192 150 168 149 194 249 214 203 180 197 205 201 199 206 190 211 225 150 114 218 241 245 235 244 207 199 196 209 280 7 276 260 343 241 238 247 244
213 212 208 205 204 203 204 206 206 203 198 195 166 188 181 222 211 209 207 193 206 192 197 218 188 222 161 85 302 316 320 328 268 77 210 193 186 257 255 264 280 289 302 222 222 269 224
213 211 208 207 204 204 203 205 207 202 200 195 193 163 191 188 222 296 197 193 187 197 207 183 74 33 112 152 182 221 243 255 259 221 71 137 173 216 181 258 270 302 232 18 5 275 164
212 210 207 205 204 202 203 205 206 204 200 199 193 180 185 215 255 254 210 208 176 157 164 144 151 170 227 199 217 227 255 238 251 214 184 176 192 226 239 261 276 268 166 51 254 301 126
211 209 207 204 202 200 201 205 208 203 201 194 180 181 184 188 214 189 357 245 86 164 173 160 137 181 167 203 206 218 236 224 247 213 199 200 207 199 202 234 275 40 112 202 166 69 80
208 207 206 204 200 198 199 202 206 202 199 194 203 174 125 193 182 69 91 348 35 65 145 173 170 169 197 195 219 213 220 208 216 248 210 233 209 233 207 225 128 52 124 9 290 108 80